Home   Weather   Kranj   Past weeks

Flag for Slovenia Past Weather in Kranj, Slovenia — Yesterday and Last 2 Weeks

Now
23 °F

Passing clouds.


Feels Like: 23 °F
Forecast: 24 / 40 °F
Wind: No wind

Location: Ljubljana Airport / Brnik

Current Time: Dec 4, 2016 at 5:10:37 am

Latest Report: Dec 4, 2016 at 4:30 am


Visibility: N/A

Pressure: 30.33 "Hg

Humidity: 93%

Dew Point: 21 °F

Location of KranjLocation

Past Weather in Kranj — Graph

°F

Kranj Temperature Yesterday

Maximum temperature yesterday: 39 °F (at 2:00 pm)
Minimum temperature yesterday: 25 °F (at 6:00 am)
Average temperature yesterday: 30 °F

High & Low Weather Summary for the Past Weeks

 TemperatureHumidityPressure
High63 °F (Nov 22, 12:00 pm)100% (Nov 19, 3:00 am)30.51 "Hg (Nov 19, 3:00 am)
Low18 °F (Nov 30, 5:00 am)30% (Nov 29, 1:30 pm)29.83 "Hg (Nov 27, 3:30 pm)
Average42 °F90%30.11 "Hg
* Reported Nov 19 3:00 am — Dec 4 3:30 am, Kranj, Weather by CustomWeather, © 2016

Note: Actual official high and low records may vary slightly from our data, if they occured in-between our weather recording intervals... More about our weather records

Advertising

Kranj Weather History for the Previous 24 Hours

Scroll right to see more
 ConditionsComfort  
Time TempWeatherWind HumidityBarometerVisibility
3:30 am
Sun, Dec 4
23 °FPassing clouds.No wind93%30.33 "HgN/A
3:00 am23 °FPassing clouds.No wind93%30.33 "HgN/A
2:30 am23 °FPassing clouds.No wind93%30.33 "HgN/A
2:00 am25 °FPassing clouds.1 mph100%30.33 "HgN/A
1:30 am25 °FPassing clouds.No wind100%30.33 "HgN/A
1:00 am25 °FPassing clouds.2 mph93%30.33 "HgN/A
12:00 am25 °FPassing clouds.1 mph93%30.33 "HgN/A
11:30 pm
Sat, Dec 3
25 °FPassing clouds.No wind93%30.33 "HgN/A
11:00 pm25 °FClear.2 mph93%30.33 "Hg10 mi
10:30 pm25 °FClear.No wind93%30.30 "Hg10 mi
10:00 pm25 °FClear.No wind93%30.30 "Hg10 mi
9:30 pm25 °FClear.3 mph93%30.30 "Hg10 mi
9:00 pm25 °FPassing clouds.2 mph100%30.30 "HgN/A
8:30 pm25 °FPassing clouds.2 mph93%30.30 "HgN/A
8:00 pm27 °FPassing clouds.1 mph86%30.30 "HgN/A
7:30 pm27 °FPassing clouds.1 mph86%30.30 "HgN/A
7:00 pm27 °FPassing clouds.1 mph93%30.27 "HgN/A
6:30 pm28 °FPassing clouds.1 mph93%30.27 "HgN/A
6:00 pm30 °FPassing clouds.1 mph86%30.27 "HgN/A
5:30 pm30 °FPassing clouds.2 mph93%30.27 "HgN/A
5:00 pm32 °FPassing clouds.1 mph87%30.24 "HgN/A
4:30 pm32 °FPassing clouds.No wind87%30.24 "HgN/A
4:00 pm32 °FScattered clouds.1 mph87%30.24 "HgN/A
3:30 pm34 °FPartly sunny.No wind87%30.21 "HgN/A
3:00 pm39 °FPartly sunny.No wind70%30.21 "HgN/A
2:30 pm39 °FBroken clouds.No wind70%30.21 "HgN/A
2:00 pm39 °FBroken clouds.No wind65%30.21 "HgN/A
1:30 pm37 °FPartly sunny.1 mph70%30.21 "HgN/A
1:00 pm37 °FPartly sunny.No wind70%30.21 "HgN/A
12:30 pm37 °FPartly sunny.1 mph75%30.24 "HgN/A
12:00 pm36 °FPartly sunny.2 mph81%30.24 "HgN/A
11:30 am36 °FPartly sunny.1 mph81%30.24 "HgN/A
11:00 am34 °FPartly sunny.1 mph93%30.24 "HgN/A
10:30 am32 °FPartly sunny.1 mph93%30.24 "HgN/A
10:00 am30 °FPartly sunny.2 mph100%30.24 "HgN/A
9:30 am30 °FPartly sunny.No wind93%30.24 "HgN/A
9:00 am28 °FPartly sunny.No wind100%30.21 "HgN/A
8:30 am27 °FFog.1 mph100%30.21 "HgN/A
8:00 am25 °FFog.No wind100%30.21 "HgN/A
7:30 am25 °FFog.1 mph93%30.21 "HgN/A
7:00 am25 °FFog.1 mph100%30.18 "HgN/A
6:30 am27 °FFog.1 mph93%30.18 "HgN/A
6:00 am25 °FFog.No wind93%30.18 "HgN/A
5:30 am27 °FPassing clouds.No wind93%30.18 "HgN/A
5:00 am27 °FPassing clouds.1 mph100%30.18 "HgN/A
Weather by CustomWeather, © 2016

See weather overviewHow to use our weather pages